Regional Weather Roundup
Issued by NWS

Home | Current Version | Previous Version | Text Only | Print | Product List | Glossary On
Versions: 1 2 3 4 5 6 7 8 9 10 11 12 13 14 15 16 17 18 19 20 21 22 23 24 25 26 27 28 29 30 31 32 33 34 35 36 37 38 39 40 41 42 43 44 45 46 47 48 49 50
000
ASUS43 KTOP 280708
RWRKS

WEATHER ROUNDUP FOR KANSAS
NATIONAL WEATHER SERVICE GOODLAND KS
200 AM CDT FRI APR 28 2017

NOTE:  "FAIR" INDICATES FEW OR NO CLOUDS BELOW 12,000 FEET WITH NO
SIGNIFICANT WEATHER AND/OR OBSTRUCTIONS TO VISIBILITY.

KSZ001>006-013>018-027>032-041>047-280800-
NORTHWEST KANSAS

CITY           SKY/WX    TMP DP  RH WIND       PRES   REMARKS
GOODLAND       PTCLDY    39  37  92 W6        29.60F
HAYS           CLOUDY    48  46  93 E14       29.59S
HILL CITY      CLOUDY    46  45  96 E9        29.61S
RUSSELL        LGT RAIN  47  45  93 E20G26    29.59F
$$

KSZ061>065-074>080-084>089-280800-
SOUTHWEST KANSAS

CITY           SKY/WX    TMP DP  RH WIND       PRES   REMARKS
DODGE CITY     PTCLDY    48  46  93 E8        29.56F
ELKHART          N/A     43  38  83 NW7         N/A
GARDEN CITY    PTCLDY    43  40  89 NE7       29.57R
GREAT BEND     LGT RAIN  50  47  89 E8        29.60F
LIBERAL        CLOUDY    49  45  86 NW7       29.58R
PRATT          CLOUDY    47  44  91 SE7       29.57F
$$

KSZ066>073-081>083-090>101-280800-
SOUTHEAST KANSAS

CITY           SKY/WX    TMP DP  RH WIND       PRES   REMARKS
CHANUTE        PTCLDY    53  47  79 E5        29.68R
COFFEYVILLE    CLOUDY    56  53  90 SE9       29.64F
HUTCHINSON     CLOUDY    52  47  83 E14       29.59F
MEDICINE LODGE   N/A     50  46  86 E8        29.55S
NEWTON         LGT RAIN  52  47  83 E12       29.62F
PARSONS        CLOUDY    56  50  80 VRB3      29.67S
WICHITA INTL   CLOUDY    54  47  77 E13       29.59F
WICHITA JABRA  MOCLDY    52  47  83 E13       29.60F
WINFIELD       MOCLDY    57  50  77 SE10      29.60F
$$

KSZ007>012-019>026-033>040-048>060-102>105-280800-
NORTHEAST KANSAS

CITY           SKY/WX    TMP DP  RH WIND       PRES   REMARKS
CONCORDIA      HVY RAIN  46  46 100 E14G23    29.67F FOG
EMPORIA        LGT RAIN  50  49  96 E10       29.68S
LAWRENCE       CLOUDY    51  49  92 NE12      29.73F
MANHATTAN      LGT RAIN  50  47  89 E15       29.69F
OLATHE IND     CLOUDY    51  47  86 E13G21    29.72F
OLATHE EXE     LGT RAIN  50  49  96 E13       29.73F
SALINA         CLOUDY    51  47  86 E15       29.63F
TOPEKA BILLARD CLOUDY    51  49  92 E10       29.71F
TOPEKA FORBES  LGT RAIN  51  48  89 E12       29.69F
$$



USA.gov is the U.S. government's official web portal to all federal, state and local government web resources and services.